Location: Unspecified
(0.0000°N, 0.0000°E)
Time: 05:47:49
(UTC+00:00)

COSMOS 2483 - Visible Passes

Search period start: 08 June 2023 00:00
Search period end: 18 June 2023 00:00
Orbit: 1478 x 1501 km, 82.5° (Epoch: 07 June)

Date Brightness Start Highest point End Pass type
(mag) Time Alt. Az. Time Alt. Az. Time Alt. Az.
08 Jun ? 19:06:40 10° S 19:15:23 77° W 19:24:09 10° N visible
09 Jun ? 18:16:37 10° SSE 18:24:59 51° E 18:33:20 10° NNE visible
09 Jun ? 20:15:30 10° SW 20:21:17 20° W 20:27:08 10° NW visible
10 Jun ? 19:22:39 10° SSW 19:30:52 46° W 19:39:08 10° NNW visible
11 Jun ? 18:31:41 10° S 18:40:26 83° E 18:49:13 10° N visible
12 Jun ? 05:11:37 10° NE 05:17:07 18° E 05:22:35 10° SE visible
12 Jun ? 19:39:21 10° SW 19:46:20 27° W 19:53:23 10° NNW visible
13 Jun ? 18:47:20 10° SSW 18:55:55 62° W 19:04:32 10° N visible
14 Jun ? 05:25:04 10° NNE 05:32:36 33° E 05:40:04 10° SSE visible
14 Jun ? 19:57:29 10° WSW 20:01:49 15° W 20:06:12 10° NW visible
15 Jun ? 04:38:58 10° ENE 04:42:09 12° E 04:45:20 10° ESE visible
15 Jun ? 19:03:35 10° SSW 19:11:23 37° W 19:19:13 10° NNW visible
16 Jun ? 18:12:12 10° S 18:20:58 81° W 18:29:45 10° N visible
17 Jun ? 04:51:03 10° NE 04:57:38 24° E 05:04:11 10° SE visible
17 Jun ? 19:20:46 10° SW 19:26:52 21° W 19:33:00 10° NW visible
